Flag for U.S.A. Weather past 2 weeks in Fairfax, Virginia, U.S.A.

Now
55 °F

Mostly cloudy.


Feels Like: 51 °F
Forecast: 43 / 60 °F
Wind: 15 mph from Northwest

Location: Washington-Dulles International Airport

Current Time: Apr 27, 2015 at 4:54:28 PM

Latest Report: Apr 27, 2015 at 3:52 PM


Visibility: 10 mi

Pressure: 29.79 "Hg

Humidity: 42%

Dew point: 32 °F

Location of FairfaxLocation

Historic Weather in Fairfax — Graph

°F

Fairfax temperature yesterday

Maximum temperature yesterday: 62 °F (at 4:52 PM)
Minimum temperature yesterday: 40 °F (at 1:52 AM)
Average temperature yesterday: 51 °F

Past Weeks' High & Low Weather Summary

 TemperatureHumidityPressure
High79 °F (Apr 18, 4:52 PM)97% (Apr 14, 8:52 AM)30.42 "Hg (Apr 14, 8:52 AM)
Low36 °F (Apr 23, 5:52 AM)20% (Apr 24, 5:52 PM)29.46 "Hg (Apr 20, 7:52 PM)
Average57 °F57%29.96 "Hg
* Reported Apr 12 3:52 PM — Apr 27 3:52 PM, Fairfax, Weather by CustomWeather, © 2015

Note: Actual official high and low records may vary slightly from our data, if they occured in-between our weather recording intervals... More about our weather records

Advertising

Fairfax weather history for previous 24 hours

 ConditionsComfort  
Time TempWeatherWind HumidityBarometerVisibility
3:52 PM
Mon, Apr 27
55 °FMostly cloudy.15 mph42%29.79 "Hg10 mi
2:52 PM58 °FBroken clouds.18 mph41%29.80 "Hg10 mi
1:52 PM56 °FPartly sunny.14 mph42%29.80 "Hg10 mi
12:52 PM54 °FPartly sunny.10 mph47%29.82 "Hg10 mi
11:52 AM57 °FBroken clouds.9 mph44%29.81 "Hg10 mi
10:52 AM55 °FPartly sunny.12 mph47%29.81 "Hg10 mi
9:52 AM54 °FPassing clouds.10 mph47%29.79 "Hg10 mi
8:52 AM52 °FPassing clouds.13 mph49%29.79 "Hg10 mi
7:52 AM48 °FPassing clouds.3 mph59%29.78 "Hg10 mi
6:52 AM38 °FPassing clouds.3 mph83%29.77 "Hg10 mi
5:52 AM40 °FPassing clouds.No wind73%29.76 "Hg10 mi
4:52 AM40 °FPassing clouds.3 mph73%29.76 "Hg10 mi
3:52 AM41 °FPassing clouds.3 mph74%29.75 "Hg10 mi
2:52 AM47 °FPassing clouds.6 mph56%29.75 "Hg10 mi
1:52 AM48 °FPassing clouds.9 mph56%29.75 "Hg10 mi
12:52 AM50 °FPassing clouds.6 mph59%29.74 "Hg10 mi
11:52 PM
Sun, Apr 26
50 °FPassing clouds.5 mph63%29.74 "Hg10 mi
10:52 PM45 °FPassing clouds.No wind74%29.73 "Hg10 mi
9:52 PM46 °FPassing clouds.No wind68%29.72 "Hg10 mi
8:52 PM53 °FPassing clouds.No wind45%29.71 "Hg10 mi
7:52 PM59 °FPassing clouds.8 mph31%29.70 "Hg10 mi
6:52 PM61 °FPassing clouds.8 mph31%29.68 "Hg10 mi
5:52 PM62 °FPartly sunny.7 mph30%29.68 "Hg10 mi
4:52 PM62 °FPartly sunny.3 mph29%29.68 "Hg10 mi
Weather by CustomWeather, © 2015

See weather overviewHow to use our weather pages